This is the latest recevied weather packets stored in our database for station/object KC5EZZ-2. If no packets are shown the sender has not sent any weather packets the latest 10 day(s).
| Time | Temp. | Humidity | Pressure | Rain* | Wind** | Luminosity | Snow |
|---|---|---|---|---|---|---|---|
| 1777152518 | 36.67° C | - | - | 0 mm | 1.79 m/s, 287° | - | - |
| 1777152218 | 36.67° C | - | - | 0 mm | 3.58 m/s, 226° | - | - |
| 1777151915 | 37.22° C | - | - | 0 mm | 2.24 m/s, 225° | - | - |
| 1777151614 | 37.22° C | - | - | 0 mm | 0.89 m/s, 225° | - | - |
| 1777151315 | 37.22° C | - | - | 0 mm | 3.13 m/s, 226° | - | - |
| 1777151012 | 37.22° C | - | - | 0 mm | 3.58 m/s, 226° | - | - |
| 1777150712 | 37.22° C | - | - | 0 mm | 2.24 m/s, 228° | - | - |
| 1777150412 | 36.67° C | - | - | 0 mm | 3.58 m/s, 231° | - | - |
| 1777150109 | 37.22° C | - | - | 0 mm | 3.13 m/s, 236° | - | - |
| 1777149577 | 36.67° C | - | - | 0 mm | 2.24 m/s, 205° | - | - |
| 1777149510 | 36.67° C | - | - | 0 mm | 2.24 m/s, 205° | - | - |
| 1777149305 | 36.67° C | - | - | 0 mm | 2.24 m/s, 184° | - | - |
| 1777149207 | 36.67° C | - | - | 0 mm | 2.24 m/s, 184° | - | - |
| 1777148938 | 36.67° C | - | - | 0 mm | 1.34 m/s, 129° | - | - |
| 1777148907 | 36.67° C | - | - | 0 mm | 1.34 m/s, 129° | - | - |
| 1777148607 | 36.67° C | - | - | 0 mm | 3.58 m/s, 131° | - | - |
| 1777148304 | 36.67° C | - | - | 0 mm | 2.68 m/s, 162° | - | - |
| 1777148005 | 36.67° C | - | - | 0 mm | 3.58 m/s, 200° | - | - |
| 1777147705 | 36.67° C | - | - | 0 mm | 4.02 m/s, 183° | - | - |
| 1777147402 | 36.11° C | - | - | 0 mm | 3.13 m/s, 205° | - | - |
| 1777147103 | 36.67° C | - | - | 0 mm | 3.13 m/s, 215° | - | - |
| 1777146803 | 36.67° C | - | - | 0 mm | 2.68 m/s, 239° | - | - |
| 1777146500 | 36.67° C | - | - | 0 mm | 3.58 m/s, 248° | - | - |
| 1777146201 | 37.22° C | - | - | 0 mm | 3.13 m/s, 219° | - | - |
| 1777145901 | 37.22° C | - | - | 0 mm | 3.13 m/s, 217° | - | - |
* Rain latest hour (hover to see other rain measurements)
** Current wind speed in m/s (hover to see current wind gust speed)